Regional Weather Roundup
Issued by NWS Albany, NY

Home | Current Version | Previous Version | Graphics & Text | Print | Product List | Glossary Off
Versions: 1 2 3 4 5 6 7 8 9 10 11 12 13 14 15 16 17 18 19 20 21 22 23 24 25 26 27 28 29 30 31 32 33 34 35 36 37 38 39 40 41 42 43 44 45 46 47 48 49 50

000
ASUS41 KALY 261010
RWRALY

NEW YORK STATE HOURLY WEATHER ROUNDUP
NATIONAL WEATHER SERVICE ALBANY NY
600 AM EDT MON JUN 26 2017

NOTE: "FAIR" INDICATES FEW OR NO CLOUDS BELOW 12,000 FEET WITH NO
SIGNIFICANT WEATHER AND/OR NO OBSTRUCTIONS TO VISIBILITY.

NYZ032-033-038>043-046>054-057>066-NYZ062>081-082-084-261100-
EAST


CITY           SKY/WX    TMP DP  RH WIND       PRES   REMARKS
ALBANY         PTCLDY    53  52  96 SW5       29.99R
GLENS FALLS    CLEAR     51  49  92 CALM      29.97S
POUGHKEEPSIE   NOT AVBL
NEWBURGH       CLEAR     54  54 100 W9        30.03R
WHITE PLAINS   CLEAR     61  52  72 W3        30.02R
NEW YORK CITY  CLEAR     67  52  58 NW7       30.01R
CENTRAL PARK   CLEAR     64  51  62 W5        30.04R
$$

NYZ005>009-017-018-044>046-055-056-261100-
CENTRAL


CITY           SKY/WX    TMP DP  RH WIND       PRES   REMARKS
FULTON         CLOUDY    55  53  93 CALM      29.98R
SYRACUSE       PTCLDY    51  51 100 CALM      29.98R
ROME           PTCLDY    49  48  97 CALM      30.00R
ELMIRA         MOCLDY    48  48 100 CALM      30.32
BINGHAMTON     CLEAR     52  48  87 SW6       30.02
$$

NYZ026>034-041>043-087-261100-
NORTH


CITY           SKY/WX    TMP DP  RH WIND       PRES   REMARKS
WATERTOWN      CLOUDY    52  52 100 CALM      29.97R
FORT DRUM      NOT AVBL
OGDENSBURG     FAIR      52  51  97 CALM      29.96R
MASSENA        CLOUDY    55  54  96 SW8       29.95S
SARANAC LAKE   CLOUDY    50  50 100 SW5       29.95R
PLATTSBURGH    NOT AVBL
$$

NYZ001>004-010>016-019>021-085-261100-
WEST


CITY           SKY/WX    TMP DP  RH WIND       PRES   REMARKS
NIAGARA FALLS  CLEAR     57  50  77 SW8       29.98R
BUFFALO        MOCLDY    59  50  72 SW7       29.99R
DUNKIRK        PTCLDY    56  53  90 S8        30.01S
JAMESTOWN      CLOUDY    52  46  82 SW6       30.04R
WELLSVILLE     CLOUDY    53  47  79 SW6       30.06R
ROCHESTER      PTCLDY    54  52  93 SW5       29.99R
PENN YAN       CLOUDY    57  49  74 S7        30.01R
$$

             KEY
       WCI = WIND CHILL INDEX
       VSB = VISIBILITY
       HX  = HEAT INDEX
$$



USA.gov is the U.S. government's official web portal to all federal, state and local government web resources and services.